Weather History for Winfield, KS

Change the Weather History Date:

Thursday, July 25, 2013

  Actual Average Record
Temperature  
Mean Temperature 78 °F -  
Max Temperature 87 °F 91 °F 107 °F (2012)
Min Temperature 71 °F 69 °F 62 °F (2004)
Cooling Degree Days 14    
Growing Degree Days 28 (Base 50)    
Moisture  
Dew Point 71 °F    
Average Humidity 80    
Maximum Humidity 93    
Minimum Humidity 65    
Precipitation  
Precipitation 0.00 in - - ()
Sea Level Pressure  
Sea Level Pressure 30.03 in    
Wind  
Wind Speed 5 mph (SE)    
Max Wind Speed 17 mph    
Max Gust Speed 23 mph    
Visibility 10 miles    
Events      
Averages and records for this station are not official NWS values.
T = Trace of Precipitation, MM = Missing Value Source: NWS Daily Summary

Daily Weather History Graph

Daily Weather History Graph

Search for Another Location

Airport:

Trip Planner

Search our weather history database for the weather conditions in past years. The results will help you decide how hot, cold, wet, or windy it might be!

Date:

Astronomy

Jul. 25, 2013 Rise Set
Actual Time 6:27 AM CDT 8:41 PM CDT
Civil Twilight 5:58 AM CDT 9:10 PM CDT
Nautical Twilight 5:22 AM CDT 9:46 PM CDT
Astronomical Twilight 4:42 AM CDT 10:25 PM CDT
Moon 10:29 PM CDT (7/25) 9:52 AM CDT (7/25)
Length of Visible Light 15h 12m
Length of Day
14h 13m
Waning Gibbous, 88% of the Moon is Illuminated
Jul 25
Waning Gibbous
Jul 29
Last Quarter
Aug 6
New
Aug 14
First Quarter
Aug 20
Full

Hourly Weather History & Observations

Time (CDT) Temp. Heat Index Dew Point Humidity Pressure Visibility Wind Dir Wind Speed Gust Speed Precip Events Conditions
12:54 AM 73.9 °F - 70.0 °F 87% 30.03 in 10.0 mi Calm Calm - N/A   Clear
1:54 AM 73.0 °F - 68.0 °F 84% 30.04 in 10.0 mi East 3.5 mph - N/A   Clear
2:54 AM 71.1 °F - 69.1 °F 93% 30.03 in 10.0 mi Calm Calm - N/A   Clear
3:54 AM 72.0 °F - 69.1 °F 91% 30.03 in 10.0 mi East 3.5 mph - N/A   Clear
4:54 AM 71.1 °F - 69.1 °F 93% 30.03 in 10.0 mi Calm Calm - N/A   Clear
5:54 AM 71.1 °F - 69.1 °F 93% 30.03 in 10.0 mi ESE 3.5 mph - N/A   Clear
6:54 AM 71.1 °F - 69.1 °F 93% 30.04 in 10.0 mi SSE 3.5 mph - N/A   Partly Cloudy
7:54 AM 73.0 °F - 70.0 °F 90% 30.05 in 10.0 mi ESE 4.6 mph - N/A   Clear
8:54 AM 75.9 °F - 72.0 °F 87% 30.06 in 10.0 mi SE 4.6 mph - N/A   Clear
9:54 AM 79.0 °F - 73.0 °F 82% 30.06 in 10.0 mi Calm Calm - N/A   Clear
10:54 AM 82.0 °F 87.4 °F 73.0 °F 74% 30.06 in 10.0 mi Variable 4.6 mph - N/A   Partly Cloudy
11:54 AM 84.0 °F 90.2 °F 73.0 °F 69% 30.06 in 10.0 mi SSE 10.4 mph - N/A   Partly Cloudy
12:54 PM 84.9 °F 91.4 °F 73.0 °F 67% 30.04 in 10.0 mi SSE 9.2 mph - N/A   Clear
1:54 PM 86.0 °F 93.0 °F 73.0 °F 65% 30.03 in 10.0 mi South 11.5 mph - N/A   Clear
2:54 PM 84.0 °F 89.0 °F 71.1 °F 65% 30.05 in 10.0 mi SSW 17.3 mph 23.0 mph N/A   Scattered Clouds
3:54 PM 84.0 °F 90.2 °F 73.0 °F 69% 30.02 in 10.0 mi SSE 12.7 mph - N/A   Partly Cloudy
4:54 PM 82.9 °F 87.5 °F 71.1 °F 67% 30.01 in 10.0 mi SSE 11.5 mph - N/A   Partly Cloudy
5:54 PM 81.0 °F 84.9 °F 71.1 °F 72% 30.00 in 10.0 mi South 11.5 mph 20.7 mph N/A   Partly Cloudy
6:54 PM 80.1 °F 83.8 °F 72.0 °F 76% 29.99 in 10.0 mi SE 6.9 mph - N/A   Scattered Clouds
7:54 PM 79.0 °F - 72.0 °F 79% 30.01 in 10.0 mi SE 5.8 mph - N/A   Clear
8:54 PM 78.1 °F - 72.0 °F 81% 30.01 in 10.0 mi SE 5.8 mph - N/A   Overcast
9:54 PM 77.0 °F - 71.1 °F 82% 29.99 in 10.0 mi SE 8.1 mph - N/A   Partly Cloudy
10:54 PM 75.9 °F - 69.1 °F 79% 29.99 in 10.0 mi SE 8.1 mph - N/A   Clear
11:54 PM 77.0 °F - 70.0 °F 79% 29.97 in 10.0 mi SSE 8.1 mph - N/A   Mostly Cloudy